Meteo Giornale » Osservazioni meteo Svizzera » Lugano

ore: 14:50 - Osservazioni Meteo Lugano
Lat. 46° 0' N Lon. 8° 58' E Alt. 273 metri s.l.m.

molto_nuvoloso Europe/Zurich

11 °C

Molto Nuvoloso

Temp. 24 Ore

2 °C

13 °C

Nord

3.7 Km/h

Dew point 6 °C

Umidità 71 %

Visibilità  10 Km

Il sole sorge alle ore 07:35

Il sole tramonta alle ore 16:46

Data e Ora Cielo e Fenomeni T °C DP °C Um. % Pres. hPa Vis. km Vento km/h
Oggi h: 14:50 molto_nuvoloso Molto Nuvoloso 11 6 71 1021 10 N 3.7
Oggi h: 14:20 molto_nuvoloso Molto Nuvoloso 11 6 71 1021 10 S 11.1
Oggi h: 13:50 molto_nuvoloso Molto Nuvoloso 11 5 66 1021 10 N 5.5
Oggi h: 13:20 molto_nuvoloso Molto Nuvoloso 11 5 66 1021 10 S/SO 9.3
Oggi h: 12:50 nuvoloso Nuvoloso 12 4 57 1021 10 N 3.7
Oggi h: 12:20 nuvoloso Nuvoloso 12 4 57 1022 10 N 3.7
Oggi h: 11:50 nuvoloso Nuvoloso 11 4 61 1022 10 N 1.8
Oggi h: 11:20 molto_nuvoloso Molto Nuvoloso 10 5 71 1022 10 N 1.8
Oggi h: 10:50 nuvoloso Nuvoloso 8 5 81 1023 10 N 1.8
Oggi h: 10:20 nuvoloso Nuvoloso 7 5 87 1023 10 N 1.8
Oggi h: 09:50 nuvoloso Nuvoloso 7 6 93 1023 10 N 1.8
Oggi h: 09:20 nuvoloso Nuvoloso 5 5 100 1023 10 N 1.8
Oggi h: 08:50 nuvoloso Nuvoloso 4 4 100 1023 10 N 5.5
Oggi h: 08:20 nuvoloso Nuvoloso 3 3 100 1022 10 N 1.8
Oggi h: 07:50 poco_nuvoloso Poco Nuvoloso 3 3 100 1023 10 N 3.7
Oggi h: 07:20 poco_nuvoloso Poco Nuvoloso 3 3 100 1022 9 N 1.8
Oggi h: 06:50 molto_nuvoloso Molto Nuvoloso 3 3 100 1022 9 N 1.8
Oggi h: 06:20 molto_nuvoloso Molto Nuvoloso 3 3 100 1022 7 N 3.7
Oggi h: 05:50 molto_nuvoloso Molto Nuvoloso 4 3 93 1022 10 N 1.8
Oggi h: 05:20 molto_nuvoloso Molto Nuvoloso 3 3 100 1022 7 N 1.8
Oggi h: 04:50 foschia Foschia 2 2 100 1022 4 N 3.7
Oggi h: 04:20 foschia Foschia 3 3 100 1022 4 N 3.7
Oggi h: 03:50 foschia Foschia 2 2 100 1022 4 N 3.7
Oggi h: 03:20 foschia Foschia 3 3 100 1022 3 N 3.7
Oggi h: 02:50 foschia Foschia 3 3 100 1022 4 N 3.7
Oggi h: 02:20 sereno Sereno 3 3 100 1022 5 N 3.7
Oggi h: 01:50 foschia Foschia 2 2 100 1022 3 N 1.8
Oggi h: 01:20 foschia Foschia 3 3 100 1021 3 N 3.7
Oggi h: 00:50 foschia Foschia 4 4 100 1022 3 N 3.7
Oggi h: 00:20 foschia Foschia 4 4 100 1022 3 N 1.8
Ieri h: 23:50 foschia Foschia 4 4 100 1022 5 N 3.7
Ieri h: 23:20 foschia Foschia 4 4 100 1022 2 N 1.8
Ieri h: 22:50 foschia Foschia 4 4 100 1022 3 N 1.8
Ieri h: 22:20 foschia Foschia 5 5 100 1021 2 N 3.7
Ieri h: 21:50 sereno Sereno 6 6 100 1021 6 N 5.5
Ieri h: 21:20 sereno Sereno 6 6 100 1021 6 N 0
Ieri h: 20:50 sereno Sereno 6 6 100 1021 7 N 0
Ieri h: 20:20 sereno Sereno 7 6 93 1021 7 N 3.7
Ieri h: 19:50 sereno Sereno 7 6 93 1021 7 N 1.8
Ieri h: 19:20 sereno Sereno 7 6 93 1021 7 N 1.8
Ieri h: 18:50 sereno Sereno 7 6 93 1020 7 N 1.8
Ieri h: 18:20 sereno Sereno 8 6 87 1020 7 N 1.8
Ieri h: 17:50 sereno Sereno 8 6 87 1020 7 N 3.7
Ieri h: 17:20 foschia Foschia 9 7 87 1020 5 N 1.8
Ieri h: 16:50 foschia Foschia 11 7 76 1020 5 N 3.7
Ieri h: 16:20 molto_nuvoloso Molto Nuvoloso 11 7 76 1019 6 N 3.7
Ieri h: 15:50 molto_nuvoloso Molto Nuvoloso 12 7 71 1019 6 N 1.8
Ieri h: 15:20 molto_nuvoloso Molto Nuvoloso 12 7 71 1019 8 N 1.8
Ieri h: 14:50 molto_nuvoloso Molto Nuvoloso 13 7 66 1019 8 N 3.7